Regional Weather Roundup
Issued by NWS Newport/Morehead, NC

Current Version | Previous Version | Graphics & Text | Print | Product List | Glossary Off
Versions: 1 2 3 4 5 6 7 8 9 10 11 12 13 14 15 16 17 18 19 20 21 22 23 24 25 26 27 28 29 30 31 32 33 34 35 36 37 38 39 40 41 42 43 44 45 46 47 48 49 50

000
ASUS42 KMHX 010910
RWRMHX
WEATHER ROUNDUP FOR EASTERN NORTH CAROLINA
NATIONAL WEATHER SERVICE NEWPORT/MOREHEAD CITY NC
500 AM EDT FRI AUG 01 2014

NOTE: "FAIR" INDICATES FEW OR NO CLOUDS BELOW 12,000 FEET
WITH NO SIGNIFICANT WEATHER AND/OR OBSTRUCTIONS TO VISIBILITY

NCZ015>017-031-032-045>047-102-103-011000-
NORTH COAST

CITY           SKY/WX    TMP DP  RH WIND       PRES   REMARKS
EDENTON        CLOUDY    73  68  85 CALM      30.12S
ELIZABETH CITY MOCLDY    73  69  87 E6        30.13S
KITTY HAWK     PTSUNNY   75  69  80 E5        30.12S
MANTEO         NOT AVBL

$$

NCZ045>047-081-094-103-104-011000-
CENTRAL COAST

CITY           SKY/WX    TMP DP  RH WIND       PRES   REMARKS
FRISCO         CLOUDY    76  71  85 E6        30.10F
SWANQUARTER      N/A     73 N/A N/A NE3       30.06S

$$

NCZ095-097-098-100-101-011000-
SOUTHERN COAST

CITY           SKY/WX    TMP DP  RH WIND       PRES   REMARKS
BEAUFORT       CLOUDY    80  72  76 E7        30.06F
CEDAR ISLAND     N/A     79 N/A N/A E14       30.12F
JACKSONVILLE   CLOUDY    75  70  84 E13       30.04F
NEWPORT        NOT AVBL
PINEY ISLAND   CLOUDY    81  74  79 E12       30.07F
WILMINGTON     MOCLDY    78  75  90 E10       30.03S


$$

NCZ011>013-027>030-043-044-078>080-089-090>093-098-011000-
COASTAL PLAIN

CITY           SKY/WX    TMP DP  RH WIND       PRES   REMARKS
AHOSKIE        CLOUDY    69  65  87 CALM      30.13S
CLINTON        CLOUDY    73  70  92 E3        30.07S
ELIZABETHTOWN  DRIZZLE   72  72 100 E3        30.06S
GOLDSBORO      LGT RAIN  72  71  98 E8        30.06F
GREENVILLE     CLOUDY    72  68  88 E3        30.12S
HAVELOCK       CLOUDY    76  69  79 NE7       30.08F
KENANSVILLE    CLOUDY    71  68  91 CALM      30.08S
KINSTON        LGT RAIN  71  69  92 NE6       30.09F
NEW BERN       LGT RAIN  76  68  76 E3        30.09F
RICHLANDS      CLOUDY    72  66  83 NE8       30.06F
ROANOKE RAPIDS NOT AVBL
ROCKY MOUNT    CLOUDY    70  67  90 NE6       30.11S
WASHINGTON     CLOUDY    70  67  90 CALM      30.11S
WHITEVILLE     MOCLDY    72  69  92 NE6       30.03S

$$

AMZ130-135-150-152-154-156-158-170-250-252-270-ANZ085-086-088-633-658-670-011000-
MARINE OBSERVATIONS

STATION/POSITION TIME  TEMP    WIND        PRES    WAVE   SWELL
                       AIR SEA DIR/SP/G            HT/PER HT/PER
                 (UTC) (F)     (DEG/KT/KT) (MB)    (FT/S) (FT/S)
CHESAPEAKE LIGHT NOT AVBL
BUOY 44014       0900   77 78   90/  6/  8 1020.3    2/ 7   2/ 7
DUCK             0900   77 76  100/ 11/ 12 1019.5
2E DUCK          0900                        N/A     2/ 8
OREGON INLET     0900   77 79   70/  5/  8 1020.0
BUOY 44095       0900      78                N/A     3/ 6
20E OREGON INLET NOT AVBL
HATTERAS CG      0900   78 80   70/  5/  6 1019.5
DIAMOND BUOY     0900          VRB 14/ 16  1018.7    4/ 7   2/ 7
CAPE LOOKOUT     0800   80     100/ 16/ 17 1018.2
BEAUFORT LAB     0900   80 81   90/  7/  8 1017.4
30 SE NEW RIVER  0800   81 81  100/ 17/ 19 1017.2
5 SE WRIGHTSVILL 0800   78 81  120/ 17/ 21   N/A
BUOY 41002       0817   81 81  170/ 10/ 12 1018.3    4/ 7   3/ 7
BUOY 41004       0900   81 83  170/ 14/ 17 1014.4    4/ 6   2/ 8

$$



USA.gov is the U.S. government's official web portal to all federal, state and local government web resources and services.